Home   Weather   Louisville   Past weeks

Flag for USA Past Weather in Louisville, Kentucky, USA — Yesterday and Last 2 Weeks

Now
56 °F

Fog.


Feels Like: 55 °F
Forecast: 53 / 65 °F
Wind: 5 mph from South

Location: Standiford Field

Current Time: Oct 1, 2016 at 4:50:36 AM

Latest Report: Oct 1, 2016 at 3:56 AM


Visibility: 5 mi

Pressure: 30.01 "Hg

Humidity: 97%

Dew Point: 55 °F

Location of LouisvilleLocation

Past Weather in Louisville — Graph

°F

Louisville Temperature Yesterday

Maximum temperature yesterday: 63 °F (at 2:56 PM)
Minimum temperature yesterday: 56 °F (at 5:56 AM)
Average temperature yesterday: 58 °F

High & Low Weather Summary for the Past Weeks

 TemperatureHumidityPressure
High92 °F (Sep 21, 3:56 PM)96% (Oct 1, 2:01 AM)30.16 "Hg (Oct 1, 2:01 AM)
Low52 °F (Sep 27, 6:56 AM)26% (Sep 21, 3:56 PM)29.80 "Hg (Sep 28, 10:56 AM)
Average73 °F65%30.02 "Hg
* Reported Sep 16 2:56 AM — Oct 1 2:56 AM, Louisville, Weather by CustomWeather, © 2016

Note: Actual official high and low records may vary slightly from our data, if they occured in-between our weather recording intervals... More about our weather records

Advertising

Louisville Weather History for the Previous 24 Hours

Scroll right to see more
 ConditionsComfort  
Time TempWeatherWind HumidityBarometerVisibility
2:56 AM
Sat, Oct 1
56 °FFog.6 mph93%30.01 "Hg1 mi
2:01 AM55 °FFog.5 mph96%30.02 "Hg1 mi
12:56 AM56 °FFog.5 mph93%30.01 "Hg6 mi
11:56 PM
Fri, Sep 30
57 °FFog.No wind90%30.01 "Hg6 mi
10:56 PM57 °FPartly cloudy.5 mph93%30.01 "Hg7 mi
9:56 PM57 °FFog.3 mph90%30.01 "Hg6 mi
8:56 PM58 °FPartly cloudy.3 mph87%30.01 "Hg7 mi
7:56 PM58 °FPassing clouds.6 mph90%30.01 "Hg7 mi
6:56 PM58 °FPartly sunny.5 mph87%30.01 "Hg8 mi
5:56 PM59 °FLight rain. Broken clouds.8 mph84%30.01 "Hg6 mi
4:56 PM61 °FPartly sunny.6 mph78%30.01 "Hg10 mi
3:56 PM62 °FLight rain. Partly sunny.14 mph73%30.00 "Hg9 mi
2:56 PM63 °FBroken clouds.No wind70%30.01 "Hg10 mi
1:56 PM60 °FMostly cloudy.No wind78%30.03 "Hg10 mi
12:56 PM59 °FLight rain. Cloudy.3 mph78%30.04 "Hg5 mi
11:56 AM58 °FMore clouds than sun.3 mph84%30.05 "Hg7 mi
10:56 AM58 °FFog.3 mph87%30.05 "Hg6 mi
9:56 AM57 °FLight rain. Fog.5 mph87%30.04 "Hg6 mi
8:56 AM57 °FLight rain. Fog.5 mph90%30.03 "Hg4 mi
7:56 AM56 °FFog.5 mph90%30.02 "Hg4 mi
6:56 AM56 °FFog.3 mph90%30.02 "Hg5 mi
5:56 AM56 °FMostly cloudy.6 mph90%30.02 "Hg8 mi
4:56 AM57 °FOvercast.7 mph87%30.01 "Hg10 mi
Weather by CustomWeather, © 2016

See weather overviewHow to use our weather pages